Wind_Speed
49 48 51 52 55 50 43 45 48 50 50 48 53 48 53 50 49 44 43 39 35 32 33 34 39 33 31 29 24 23 13 20
52 52 53 57 55 43 43 48 53 55 56 51 54 54 51 48 42 43 41 38 28 27 31 34 40 39 30 26 23 25 18 18
57 55 55 57 44 43 48 51 49 55 55 52 51 52 49 44 47 42 40 28 22 24 31 37 44 32 23 21 23 21 22 17
59 54 57 46 44 43 48 56 60 57 57 55 54 53 48 49 46 44 37 29 20 17 21 24 34 39 32 22 24 25 29 24
61 57 51 47 44 45 58 61 64 60 61 59 58 54 50 51 51 42 35 34 29 17 28 28 29 39 38 32 39 30 29 30
66 60 50 44 49 62 62 65 63 64 63 59 59 54 52 57 55 49 33 30 28 24 25 27 41 38 48 44 36 34 39 41
61 55 45 42 63 61 62 63 63 65 63 62 60 62 61 58 60 43 37 26 25 32 23 25 38 39 44 42 46 43 37 36
51 51 53 64 57 60 59 61 65 66 66 65 66 67 63 65 61 46 36 32 37 33 28 29 29 34 40 42 46 50 42 36
58 61 68 59 58 59 58 60 65 62 64 67 68 69 72 67 64 46 36 37 41 43 47 43 43 52 46 54 53 51 54 56
69 67 62 55 60 58 59 64 67 66 68 70 72 71 72 72 63 46 34 47 46 55 58 59 59 54 56 55 61 65 64 63
68 62 50 60 60 56 62 66 67 69 70 73 74 72 79 73 62 46 40 40 57 56 64 63 63 74 72 65 67 65 68 68
60 52 57 60 57 58 65 68 70 72 72 73 73 77 76 68 56 53 46 43 45 58 65 70 70 72 76 76 74 74 73 75
57 57 59 59 56 64 67 69 71 72 74 75 73 74 76 65 49 48 48 44 45 53 64 74 78 78 82 80 78 76 76 76
57 57 59 57 61 66 70 72 72 74 76 74 77 76 80 59 48 42 38 39 42 45 59 65 75 84 85 85 87 87 83 79
58 59 61 63 65 70 73 74 74 74 75 76 75 76 84 65 50 44 42 42 42 44 49 48 52 61 72 83 92 93 92 93
61 63 65 68 69 73 76 75 75 76 77 79 78 80 83 75 58 51 48 48 48 50 53 57 61 66 69 74 77 82 92 98
65 70 72 70 73 76 76 77 78 79 81 81 81 82 84 84 71 59 59 57 57 59 61 66 69 71 73 75 79 83 87 89
73 72 70 73 75 74 77 81 80 81 82 83 85 84 89 89 83 79 70 68 70 72 74 76 77 76 78 78 79 81 85 88
72 71 74 75 75 76 79 81 83 82 83 86 87 87 93 93 98 91 80 78 80 81 84 84 84 84 81 79 73 75 81 86
71 74 76 76 77 79 80 80 82 87 89 90 91 94 99 99 102 90 84 84 86 88 89 88 90 82 78 77 74 68 67 72
Wind_Direction
335 331 329 328 329 326 323 328 324 324 326 332 325 330 329 330 329 331 323 319 315 318 312 321 322 315 313 305 304 299 297 307
335 328 327 328 325 324 325 325 323 323 327 329 328 328 329 327 326 322 326 322 323 328 327 314 327 320 308 294 298 297 291 290
328 328 327 326 321 324 326 325 329 331 330 331 330 327 328 326 323 322 324 309 310 318 317 315 320 315 307 283 281 309 310 288
322 324 327 323 320 322 325 329 329 329 330 333 332 330 329 328 325 323 319 302 308 328 325 314 307 314 310 262 288 285 303 289
319 321 329 322 318 322 330 328 328 329 333 331 332 333 331 331 330 321 312 293 278 298 277 306 285 302 296 286 291 274 278 285
315 322 328 316 314 325 325 326 327 332 334 332 332 333 333 331 331 318 308 295 274 276 265 248 255 285 282 289 288 277 275 280
311 320 320 306 320 320 324 326 328 332 333 329 330 330 330 328 327 315 299 275 261 268 243 231 252 267 267 281 284 278 280 271
312 317 310 319 317 324 325 327 330 331 327 329 328 328 326 326 325 317 292 263 252 253 215 220 223 243 263 265 274 279 282 275
313 315 314 317 322 323 323 328 330 329 324 324 324 326 325 326 325 318 279 259 248 239 229 237 243 262 273 270 274 275 278 282
314 312 314 318 323 323 323 328 329 325 325 325 327 326 331 329 322 313 294 251 242 237 240 254 252 253 260 271 270 274 277 280
310 311 316 319 321 320 324 326 327 327 326 327 327 328 331 330 320 306 291 274 239 242 243 244 249 247 257 264 267 271 274 276
309 311 315 317 318 320 325 326 324 324 325 327 325 328 333 329 319 307 290 275 265 245 239 248 248 250 255 263 268 274 275 276
308 310 314 314 314 322 323 323 323 324 324 324 328 330 334 328 314 307 295 281 276 261 250 248 252 254 257 261 269 271 274 275
306 308 311 311 316 320 323 322 323 322 324 325 329 333 338 328 316 309 303 289 278 277 265 264 260 259 261 266 269 269 266 267
303 306 309 311 316 320 321 321 321 320 322 325 329 335 339 331 322 309 302 293 285 277 274 272 266 264 264 265 264 265 267 267
300 304 309 313 317 319 320 319 318 319 322 324 329 336 337 335 326 317 312 305 297 293 292 291 288 283 276 270 266 262 260 259
298 304 308 313 318 319 319 318 318 319 320 323 328 331 334 336 332 322 317 313 311 308 304 300 296 291 283 275 272 269 266 262
300 304 310 316 317 318 318 317 317 318 319 324 327 330 332 332 333 332 321 317 316 315 313 309 305 302 297 291 283 278 271 263
300 304 312 316 316 316 317 315 316 317 320 324 327 329 330 330 332 330 324 320 317 317 315 311 309 308 303 297 290 281 276 272
299 309 314 314 315 314 315 316 317 320 322 325 326 327 330 330 330 325 323 320 316 315 314 314 311 308 308 305 302 294 285 276
Height
10888 10886 10882 10877 10873 10868 10863 10859 10854 10849 10846 10841 10836 10828 10822 10814 10808 10804 10796 10791 10787 10784 10781 10780 10780 10781 10779 10772 10768 10766 10771 10771
10882 10881 10876 10871 10866 10861 10857 10853 10848 10845 10841 10833 10826 10819 10813 10807 10802 10796 10791 10787 10782 10777 10774 10774 10775 10775 10772 10768 10762 10758 10762 10767
10876 10874 10870 10864 10858 10855 10850 10846 10843 10839 10832 10826 10820 10812 10806 10799 10794 10788 10782 10779 10774 10771 10770 10766 10767 10766 10764 10761 10759 10754 10754 10758
10868 10868 10865 10857 10852 10848 10844 10839 10834 10830 10824 10817 10811 10804 10798 10791 10784 10779 10775 10772 10767 10761 10761 10760 10759 10757 10756 10753 10753 10750 10752 10751
10857 10860 10857 10849 10843 10841 10835 10829 10826 10822 10816 10808 10802 10796 10789 10781 10775 10770 10766 10762 10760 10751 10752 10751 10752 10751 10747 10746 10744 10744 10743 10748
10842 10851 10848 10842 10836 10833 10827 10822 10817 10813 10806 10799 10793 10787 10781 10774 10768 10760 10755 10752 10751 10745 10743 10752 10749 10745 10736 10737 10732 10731 10733 10735
10840 10841 10840 10837 10829 10826 10818 10813 10808 10804 10795 10788 10782 10776 10771 10766 10759 10752 10745 10743 10742 10740 10738 10737 10740 10737 10730 10725 10719 10717 10723 10724
10838 10834 10830 10830 10824 10818 10811 10805 10797 10790 10784 10779 10774 10768 10762 10755 10748 10740 10734 10733 10731 10732 10727 10725 10725 10723 10720 10711 10708 10705 10708 10709
10834 10829 10822 10819 10812 10809 10803 10799 10793 10787 10779 10771 10765 10757 10747 10739 10732 10727 10722 10719 10718 10717 10711 10710 10710 10711 10707 10703 10697 10694 10695 10695
10822 10817 10812 10806 10801 10796 10792 10785 10780 10773 10766 10759 10751 10743 10734 10722 10714 10710 10710 10708 10706 10703 10699 10691 10689 10690 10692 10689 10686 10682 10680 10680
10808 10806 10801 10794 10790 10785 10780 10775 10768 10763 10757 10749 10740 10730 10720 10710 10699 10693 10691 10692 10692 10688 10686 10679 10676 10674 10671 10670 10669 10669 10668 10662
10798 10795 10791 10786 10781 10775 10769 10763 10757 10751 10744 10738 10729 10720 10708 10698 10689 10681 10676 10676 10678 10681 10680 10671 10666 10664 10662 10660 10657 10653 10652 10649
10791 10785 10782 10776 10771 10766 10760 10754 10747 10741 10734 10726 10718 10710 10699 10688 10680 10672 10667 10665 10667 10668 10671 10667 10660 10658 10653 10649 10645 10641 10637 10635
10782 10776 10771 10765 10760 10754 10748 10743 10736 10729 10721 10714 10706 10695 10686 10678 10672 10666 10661 10659 10657 10654 10656 10654 10647 10643 10637 10633 10630 10626 10621 10619
10768 10764 10760 10754 10748 10741 10735 10729 10723 10716 10709 10701 10691 10683 10674 10666 10662 10657 10652 10648 10644 10641 10638 10636 10631 10624 10619 10613 10608 10603 10599 10595
10757 10753 10747 10741 10735 10728 10722 10715 10708 10701 10694 10686 10678 10668 10659 10652 10649 10645 10639 10634 10628 10624 10618 10613 10609 10602 10594 10589 10582 10578 10573 10570
10746 10739 10733 10727 10722 10714 10707 10700 10694 10687 10680 10672 10664 10655 10647 10640 10635 10631 10624 10619 10614 10607 10600 10591 10582 10573 10566 10559 10553 10547 10543 10542
10731 10725 10719 10713 10707 10700 10693 10686 10680 10674 10667 10658 10650 10640 10632 10623 10616 10611 10603 10596 10590 10583 10575 10565 10558 10548 10536 10528 10520 10513 10509 10505
10719 10713 10707 10699 10692 10686 10680 10673 10664 10658 10651 10642 10633 10624 10614 10604 10596 10586 10577 10569 10560 10553 10545 10535 10525 10515 10505 10494 10489 10483 10477 10468
10707 10701 10694 10686 10679 10673 10666 10659 10650 10637 10629 10620 10613 10604 10595 10582 10574 10565 10557 10547 10538 10528 10519 10508 10496 10487 10476 10464 10451 10445 10443 10440